Regional Weather Roundup
Issued by NWS Burlington, VT

Home | Current Version | Previous Version | Text Only | Print | Product List | Glossary On
Versions: 1 2 3 4 5 6 7 8 9 10 11 12 13 14 15 16 17 18 19 20 21 22 23 24 25 26 27 28 29 30 31 32 33 34 35 36 37 38 39 40 41 42 43 44 45 46 47 48 49 50
556
ASUS41 KBTV 232130
RWRBTV
VERMONT REGIONAL WEATHER ROUNDUP
NATIONAL WEATHER SERVICE BURLINGTON VT
400 PM EST THU NOV 23 2017

NOTE: "FAIR" INDICATES FEW OR NO CLOUDS BELOW 12,000 FEET WITH NO
SIGNIFICANT WEATHER AND/OR OBSTRUCTIONS TO VISIBILITY.

* THESE REPORTS ARE NOT UNDER NWS QUALITY CONTROL AND/OR DO NOT
  REPORT WEATHER SUCH AS PRECIPITATION AND FOG.

VTZ001>019-232200-
_____VERMONT_____


CITY           SKY/WX    TMP DP  RH WIND       PRES   REMARKS
BURLINGTON     CLOUDY    31  16  54 S7        29.97F WCI  24
MONTPELIER     CLOUDY    28  15  58 CALM      29.98S
MORRISVILLE    CLOUDY    26  16  65 CALM      29.96F
ST. JOHNSBURY*   N/A     28  16  60 MISG      29.95F
LYNDONVILLE*   CLOUDY    26  16  67 CALM      29.95R
MIDDLEBURY*    CLOUDY    29  17  59 CALM      29.97F
RUTLAND*       PTCLDY    30  17  58 CALM      29.98S
SPRINGFIELD    CLOUDY    31  16  54 VRB3      29.98S
HIGHGATE*      CLOUDY    29  17  59 S5        29.95F WCI  24
NEWPORT*       CLOUDY    26  16  66 S3        29.94F
BENNINGTON     PTCLDY    32  19  58 VRB5      29.98S WCI  27
SUTTON*          N/A     23 N/A N/A MISG        N/A
ISLAND POND*     N/A     25 N/A N/A SW1         N/A
GALLUP MILLS*    N/A     25 N/A N/A MISG        N/A
UNION VILLAGE*   N/A     30 N/A N/A MISG        N/A

_____LAKE CHAMPLAIN_____


CITY           SKY/WX    TMP DP  RH WIND       PRES   REMARKS
BURTON ISLAND*   N/A     32  21  64 S14G20      N/A  WCI  22
COLCHESTER RF*   N/A     32  25  74 S18         N/A  WCI  20
DIAMOND ISL*     N/A     32  21  64 S10         N/A  WCI  24

$$

NYZ007-026>031-035-052-083-087-232200-
_____NORTHERN NEW YORK_____


CITY           SKY/WX    TMP DP  RH WIND       PRES   REMARKS
PLATTSBURGH    CLOUDY    31  18  58 S7        29.96F WCI  24
SARANAC LAKE   CLOUDY    26  23  88 SW9       29.87S WCI  17
MASSENA        CLOUDY    32  25  75 SW9       29.94F WCI  24
OGDENSBURG*    FAIR      32  27  82 S7        29.92F WCI  26
POTSDAM*       CLOUDY    30  30 100 SW8       29.92F WCI  23
STARK FALLS*     N/A     28 N/A N/A S8          N/A  WCI  20
WATERTOWN      CLOUDY    34  25  69 S8        29.95S WCI  27
FT DRUM        CLOUDY    32  24  70 SW12      29.92F WCI  23
ALBANY         MOCLDY    36  20  52 NW8       30.01F WCI  30
GLENS FALLS    PTCLDY    32  20  61 CALM      29.99F

$$
NHZ002-005-011-232200-
_____NEW HAMPSHIRE_____


CITY           SKY/WX    TMP DP  RH WIND       PRES   REMARKS
LEBANON        CLOUDY    33  13  43 W6        29.97S WCI  28
KEENE          PTCLDY    35  12  38 N5        29.97S WCI  31
MT WASHINGTON  MOCLDY    12  -4  48 W35         N/A  WCI -10
PLYMOUTH       CLOUDY    31  15  52 W5        29.97R WCI  26
WHITEFIELD     CLOUDY    27  16  63 CALM      29.94F

$$

_____REGIONAL QUEBEC LOCATIONS_____


CITY           SKY/WX    TMP DP  RH WIND       PRES   REMARKS
MONTREAL       CLOUDY    30  19  64 S10       29.94F WCI  21
QUEBEC CITY    MOCLDY    25  14  63 SW14      29.91S WCI  13
SHERBROOKE     CLOUDY    25  16  68 SW6       29.93S WCI  18

_____REGIONAL ONTARIO LOCATIONS_____


CITY           SKY/WX    TMP DP  RH WIND       PRES   REMARKS
OTTAWA         CLOUDY    32  25  74 S9        29.89F WCI  24

______KEY______
VSB  - VISIBILITY IN MILES
WCI  - WIND CHILL INDEX
HX   - HEAT INDEX
$$
NNNN




USA.gov is the U.S. government's official web portal to all federal, state and local government web resources and services.